Location: Newark
(50.4348°N, 30.5552°E)
Time: 02:07:26
(UTC+00:00)

Transit 2A Rocket - Pass Details

Date: 05 February 2020
Orbit: 591 x 912 km, 66.7° (Epoch: 25 February)

Event Time Altitude Azimuth Distance (km) Brightness Sun altitude
Exits shadow 01:40:23 12° 31° (NNE) 1,846 7.5 -36.1°
Drops below altitude 10° 01:40:47 10° 32° (NNE) 2,002 7.7 -36.1°
Sets 01:43:10 0° 36° (NE) 2,951 8.7 -35.7°
